Printer-friendly version
Follow the MPC on Twitter Follow the MPC on Facebook The MPC blog
Minor Planet Center

MPEC 2004-Q43 : COMET C/2004 Q1 (TUCKER)

The following Minor Planet Electronic Circular may be linked-to from your own Web pages, but must not otherwise be redistributed electronically.

A form allowing access to any MPEC is at the bottom of this page.


Read MPEC 2004-Q42 Read MPEC 2004-Q44


M.P.E.C. 2004-Q43                                Issued 2004 Aug. 25, 14:21 UT

     The Minor Planet Electronic Circulars contain information on unusual
         minor planets and routine data on comets.  They are published
   on behalf of Commission 20 of the International Astronomical Union by the
          Minor Planet Center, Smithsonian Astrophysical Observatory,
                          Cambridge, MA 02138, U.S.A.

                  Supported in part by the Brinson Foundation
             Prepared using the Tamkin Foundation Computer Network

                              MPC@CFA.HARVARD.EDU
          URL http://cfa-www.harvard.edu/iau/mpc.html  ISSN 1523-6714

                           COMET C/2004 Q1 (TUCKER)

Observations:
    CK04Q010  C2004 08 22.45841 02 42 22.35 +01 51 45.4          14.8 T EQ043683
    CK04Q010  C2004 08 22.47181 02 42 22.33 +01 51 58.4          14.7 T EQ043683
    CK04Q010  C2004 08 22.48520 02 42 22.27 +01 52 11.7          14.8 T EQ043683
    CK04Q010  C2004 08 23.45566 02 42 20.76 +02 08 54.4          14.6 T EQ043683
    CK04Q010  C2004 08 23.46907 02 42 20.55 +02 09 09.6          14.6 T EQ043683
    CK04Q010  C2004 08 23.48245 02 42 20.28 +02 09 19.4          14.1 T EQ043683
    CK04Q010  C2004 08 24.43317 02 42 17.61 +02 25 54.2          15.6 T EQ043G72
    CK04Q010  C2004 08 24.43586 02 42 17.59 +02 25 57.0          15.5 T EQ043G72
    CK04Q010  C2004 08 24.43855 02 42 17.57 +02 25 59.7          15.7 T EQ043G72
    CK04Q010  C2004 08 24.44124 02 42 17.56 +02 26 02.5          15.4 T EQ043G72
    CK04Q010  C2004 08 24.44394 02 42 17.50 +02 26 05.9          16.2 T EQ043G72
    CK04Q010  C2004 08 24.44662 02 42 17.52 +02 26 08.1          15.5 T EQ043G72
    CK04Q010  C2004 08 24.44932 02 42 17.52 +02 26 11.5          15.9 T EQ043G72
    CK04Q010  C2004 08 24.45201 02 42 17.50 +02 26 14.1          15.5 T EQ043G72
    CK04Q010  C2004 08 24.45471 02 42 17.48 +02 26 17.1          15.5 T EQ043G72
    CK04Q010  C2004 08 24.45740 02 42 17.48 +02 26 19.8          15.5 T EQ043G72
    CK04Q010  C2004 08 24.81010 02 42 15.65 +02 32 37.0                 EQ043413
    CK04Q010  C2004 08 24.81172 02 42 15.64 +02 32 38.7                 EQ043413
    CK04Q010  C2004 08 24.81334 02 42 15.63 +02 32 40.5                 EQ043413
    CK04Q010  C2004 08 24.96551 02 42 15.07 +02 35 15.7          15.9 N EQ043A50
    CK04Q010  C2004 08 24.96624 02 42 15.00 +02 35 17.4          16.7 N EQ043A50
    CK04Q010  C2004 08 24.96698 02 42 15.00 +02 35 17.6          16.2 N EQ043A50
    CK04Q010  C2004 08 24.96771 02 42 15.03 +02 35 18.4          15.7 N EQ043A50
    CK04Q010  C2004 08 24.96845 02 42 15.05 +02 35 19.0          15.8 N EQ043A50
    CK04Q010  C2004 08 25.34630 02 42 12.90 +02 42 02.5          14.2 T EQ043854
    CK04Q010  C2004 08 25.35124 02 42 12.90 +02 42 07.7          14.1 T EQ043854
    CK04Q010  C2004 08 25.35483 02 42 12.84 +02 42 11.6          14.2 T EQ043854
    CK04Q010  C2004 08 25.46556 02 42 12.04 +02 44 09.9          15.4 T EQ043G72
    CK04Q010  C2004 08 25.46666 02 42 12.01 +02 44 10.8          15.4 T EQ043G72
    CK04Q010  C2004 08 25.46774 02 42 12.02 +02 44 12.1          15.3 T EQ043G72
    CK04Q010  C2004 08 25.46883 02 42 11.99 +02 44 13.2          15.4 T EQ043G72
    CK04Q010  C2004 08 25.46992 02 42 11.98 +02 44 14.2          15.4 T EQ043G72
    CK04Q010  C2004 08 25.47102 02 42 12.01 +02 44 15.6          15.4 T EQ043G72
    CK04Q010  C2004 08 25.47209 02 42 11.97 +02 44 16.5          15.3 T EQ043G72
    CK04Q010  C2004 08 25.47319 02 42 11.98 +02 44 17.9          15.3 T EQ043G72
    CK04Q010  C2004 08 25.47428 02 42 11.99 +02 44 18.9          15.3 T EQ043G72
    CK04Q010  C2004 08 25.47536 02 42 11.96 +02 44 19.9          15.3 T EQ043G72
    CK04Q010  C2004 08 25.47646 02 42 11.94 +02 44 21.1          15.2 T EQ043G72
    CK04Q010  C2004 08 25.47755 02 42 11.95 +02 44 22.3          15.2 T EQ043G72
    CK04Q010  C2004 08 25.47865 02 42 11.94 +02 44 23.5          15.3 T EQ043G72
    CK04Q010  C2004 08 25.47973 02 42 11.92 +02 44 24.7          15.4 T EQ043G72
    CK04Q010  C2004 08 25.48067 02 42 11.87 +02 44 25.7          15.1 T EQ043683
    CK04Q010  C2004 08 25.48082 02 42 11.93 +02 44 25.7          15.2 T EQ043G72
    CK04Q010  C2004 08 25.48192 02 42 11.91 +02 44 27.0          15.3 T EQ043G72
    CK04Q010  C2004 08 25.48301 02 42 11.91 +02 44 28.4          15.3 T EQ043G72
    CK04Q010  C2004 08 25.48410 02 42 11.89 +02 44 29.4          15.2 T EQ043G72
    CK04Q010  C2004 08 25.48520 02 42 11.88 +02 44 30.6          15.2 T EQ043G72
    CK04Q010  C2004 08 25.48608 02 42 11.83 +02 44 31.6          15.1 T EQ043683
    CK04Q010  C2004 08 25.49363 02 42 11.77 +02 44 39.4          15.1 T EQ043683
    CK04Q010  C2004 08 25.50009 02 42 11.71 +02 44 46.3          15.1 T EQ043683

Observer details:
413 Siding Spring.  Observer R. H. McNaught.  1.0-m f/8 reflector + CCD.
683 Goodricke-Pigott Observatory, Tucson.  Observer R. Tucker.  0.35-m f/5
    reflector + CCD.
854 Sabino Canyon Observatory, Tucson.  Observer J. E. McGaha.  0.36-m f/10.0
    Schmidt-Cassegrain + CCD.
A50 Andrushivka Astronomical Observatory.  Observer V. Lokot.  0.6-m reflector
    + CCD.
G72 University Hills.  Observer J. Foster.  0.32-m f/5.6 reflector + CCD.

Orbital elements:
    C/2004 Q1 (Tucker)
T 2004 Dec. 10.500 TT                                   MPC
q   2.00387              (2000.0)            P               Q
                   Peri.   35.562       +0.634822       -0.706791
                   Node    21.955       +0.358244       -0.088722
e   1.0            Incl.   56.610       +0.684589       +0.701837
From 48 observations 2004 Aug. 22-25.

Ephemeris:
    C/2004 Q1 (Tucker)
Date    TT    R. A. (2000) Decl.     Delta      r     Elong.  Phase   m1    m2
2004 08 23    02 42.36   +02 01.0    1.841    2.394   110.7    23.3  14.6
2004 08 28    02 41.82   +03 30.2    1.748    2.362   115.2    22.8  14.4
2004 09 02    02 40.41   +05 06.6    1.658    2.332   120.0    22.0  14.3
2004 09 07    02 38.01   +06 51.0    1.572    2.303   124.9    21.0  14.1
2004 09 12    02 34.48   +08 44.3    1.491    2.274   130.2    19.8  13.9
2004 09 17    02 29.69   +10 47.2    1.415    2.247   135.7    18.2  13.8
2004 09 22    02 23.53   +12 59.9    1.346    2.221   141.4    16.4  13.6
2004 09 27    02 15.88   +15 22.0    1.285    2.196   147.3    14.3  13.5
2004 10 02    02 06.68   +17 52.4    1.232    2.172   153.1    12.0  13.3

Brian G. Marsden             (C) Copyright 2004 MPC           M.P.E.C. 2004-Q43

Read MPEC 2004-Q42 Read MPEC 2004-Q44


MPEC number:

Enter an MPEC number in one of the following forms:

  • 1997-B01 (the full form)
  • J97B01 (the packed version of the full form)
  • B01 (the abbreviated form)

Valid HTML 4.01!